Regional Weather Roundup
Issued by NWS

Home | Current Version | Previous Version | Graphics & Text | Print | Product List | Glossary On
Versions: 1 2 3 4 5 6 7 8 9 10 11 12 13 14 15 16 17 18 19 20 21 22 23 24 25 26 27 28 29 30 31 32 33 34 35 36 37 38 39 40 41 42 43 44 45 46 47 48 49 50
000
ASUS44 KMEG 280710
RWRTN
TENNESSEE HOURLY STATE WEATHER ROUNDUP
NATIONAL WEATHER SERVICE MEMPHIS TN
200 AM CDT WED SEP 28 2016

TNZ002-004-019-021-049-052-054-088>092-280800-
WEST TENNESSEE

CITY           SKY/WX    TMP DP  RH WIND       PRES   REMARKS
MEMPHIS INTL   PTCLDY    60  50  69 CALM      29.95S
NWS MEMPHIS      N/A     54 N/A N/A MISG        N/A
JACKSON          N/A    N/A N/A N/A MISG      29.94F
DYERSBURG      CLEAR    N/A N/A N/A MISG        N/A
UNION CITY     CLEAR     52  52 100 SE3       29.91F
PARIS          CLEAR     55  45  67 CALM      29.93F
HUNTINGDON     PTCLDY    54  50  87 CALM      29.92S
LEXINGTON      CLEAR     48  48 100 CALM      29.94S
$$

TNZ008-025-027-028-033-062-065-066-280800-
NORTH MIDDLE TENNESSEE

CITY           SKY/WX    TMP DP  RH WIND       PRES   REMARKS
NASHVILLE      CLEAR     55  48  77 CALM      29.95S
PORTLAND       MOCLDY    52  48  87 S5        29.94S
CLARKSVILLE    CLEAR     52  48  86 CALM      29.93S
SMYRNA         CLEAR     51  49  92 CALM      29.96S
COOKEVILLE     CLEAR     45  45 100 CALM      29.95S
GALLATIN       PTCLDY    52  50  93 CALM      29.97S
CROSSVILLE     CLEAR     48  44  86 W5        29.98S
$$

TNZ061-075-076-078-094-096-097-280800-
SOUTH MIDDLE TENNESSEE

CITY           SKY/WX    TMP DP  RH WIND       PRES   REMARKS
FAYETTEVILLE   CLOUDY    54  46  76 CALM      29.96S
TULLAHOMA      CLEAR     46  43  87 CALM      29.97S
WINCHESTER     CLEAR     46  46 100 CALM      29.97S
MCMINNVILLE    CLEAR     46  46 100 CALM      29.96S
COLUMBIA       CLEAR    N/A N/A N/A CALM      29.94S
SHELBYVILLE    CLEAR     48  48 100 CALM      29.96F
$$

TNZ017-018-042-046-047-280800-
NORTHEAST TENNESSEE

CITY           SKY/WX    TMP DP  RH WIND       PRES   REMARKS
TRI CITIES     FOG       55  55 100 CALM      29.95S VSB 1
ELIZABETHTON     N/A     59  57  94 CALM      29.95S
$$

TNZ012-013-036-069-073-074-280800-
CENTRAL EAST TENNESSEE

CITY           SKY/WX    TMP DP  RH WIND       PRES   REMARKS
KNOXVILLE      PTCLDY    61  55  81 SW3       29.93S
OAK RIDGE      CLEAR     55  51  86 CALM      29.96S
DOWNTOWN KNOXV CLOUDY    63  59  88 CALM      29.94S
GATLINBURG     MOCLDY    59  57  94 CALM      29.94S
MORRISTOWN     CLOUDY    57  54  88 CALM      29.94S
JACKSBORO      PTCLDY    52  48  87 CALM      29.98S
$$

TNZ083-085-099-280800-
SOUTHEAST TENNESSEE

CITY           SKY/WX    TMP DP  RH WIND       PRES   REMARKS
CHATTANOOGA    CLEAR     63  54  72 N3        29.94S
$$

SKY/WX REPORTED AS FAIR MEANS FEW OR NO CLOUDS BELOW
12 THOUSAND FEET.





USA.gov is the U.S. government's official web portal to all federal, state and local government web resources and services.